sat.trackr.live / text

‹ back to catalog

STARLINK-4320

NORAD 53059 · 2022-077S

PAYLOAD ACTIVE UNKNOWN

§ Identity

Operator
Country
US
Launch date
2022-07-11
Launch site
AFWTR
Launch vehicle
Mass (kg)
RCS (m²)

Purposes: comms

External: N2YO · Heavens-Above · Gunter

§ Orbital elements

Epoch: 2026-05-24T23:11:39.677280Z

Period
95.64 min
Inclination
97.4491°
Eccentricity
0.0000881
Mean motion
15.05656000 rev/d
Perigee alt
548.9 km
Apogee alt
550.1 km
Semi-major
6,927.6 km
B*
-3.9260e-6
RAAN
324.8899°
Arg perigee
141.1977°
Mean anomaly
218.9314°
Rev number
21,238

§ Raw data

STARLINK-43201 53059U 22077S   26144.96643145 -.00000115  00000+0 -39260-5 0  99982 53059  97.4491 324.8899 0000881 141.1977 218.9314 15.05656000212380

JSON: /api/v1/satellites/53059 · /tle

For live sub-satellite position, see the globe view (requires WebGL).

§ Visibility from observer

Set your observer location to see the next 7 days of passes ≥ 10°. The values pass through the URL so the page stays shareable.

No JS? Fill the form by hand. The geolocation button needs JavaScript.